Погода в Кабо Рохо

Пуэрто-Рико     18°03′09″N   67°09′10″W
темп.,
°C
ветер,
м/с
пор.,
м/с
влажн.,
%
обл.,
%
осадки,
мм/ч
давл.,
гПа
погр.,
м
9 августа, вт
вт923:00+27всв33760 0.0 1015287
02:00+27ссв11764 0.0 1014229
05:00+27всв22740 0.0 1015211
08:00+27всв23706 0.0 1016212
11:00+29зсз336478 0.0 1017366
14:00+30ю446258 0.0 1015511
17:00+30юв3468100 0.1 1014292
20:00+28св5576100 0.4 1015299
10 августа, ср
ср1023:00+28всв3376100 0.1 1016221
02:00+27в337724 0.2 1015297
05:00+26в237797 0.0 1015300
08:00+27всв347581 0.0 1016333
11:00+29вюв3467100 0.0 1017495
14:00+29вюв2465100 0.0 1016964
17:00+29юв246681 0.1 1015585
20:00+28вюв5674100 0.3 1016499
11 августа, чт
чт1123:00+28вюв7974100 0.1 1016627
02:00+27вюв5872100 0.1 1014610
05:00+26в58766 0.0 1014486
08:00+27в367172 0.0 1015381
11:00+29вюв577097 0.1 1016914
14:00+28юв997469 3.6 1015696
17:00+28вюв567334 2.7 1014826
20:00+28вюв787611 3.8 1015631
12 августа, пт
пт1223:00+28в787810 0.1 1016492
02:00+27вюв687896 0.8 1014661
05:00+27в577993 0.3 1014512
08:00+27в5876100 0.4 1015697
11:00+29юв897497 0.1 1016993
14:00+29вюв897073 0.1 1015677
17:00+28св137263 0.8 1014585
20:00+28вюв56786 1.4 1015503
13 августа, сб
сб1323:00+27вюв67754 0.0 1015538
02:00+26в447850 0.0 1014405
05:00+26в33775 0.0 1014276
08:00+26св23754 0.0 1015258
11:00+28сз12685 0.0 1016389
14:00+28ююв457161 0.4 1014711
17:00+28вюв567356 5.2 1013751
20:00+28св337357 6.5 1014507